Overview Statistics Trail Chart Weather Telemetry Raw packets
 

This is the latest recevied weather packets stored in our database for station/object K8RRT. If no packets are shown the sender has not sent any weather packets the latest 10 day(s).

<< 98 99 100 101 102 103 104 >>
Time Temp. Humidity Pressure Rain* Wind** Luminosity Snow
1787878397 22.78° C 99% 1010.5 hPa 0 mm - 0 W/m² -
1787878093 22.78° C 99% 1010.3 hPa 0 mm - 0 W/m² -
1787877788 22.78° C 99% 1010.4 hPa 0 mm - 0 W/m² -
1787877483 23.33° C 99% 1010.4 hPa 0 mm - 0 W/m² -
1787877179 23.33° C 99% 1010.3 hPa 0 mm - 0 W/m² -
1787876878 23.33° C 99% 1010.1 hPa 0 mm - 0 W/m² -
1787876574 23.33° C 99% 1010 hPa 0 mm - 0 W/m² -
1787876274 23.33° C 99% 1009.7 hPa 0 mm - 0 W/m² -
1787875972 23.89° C 99% 1009.8 hPa 0 mm - 0 W/m² -
1787875668 23.89° C 98% 1009.7 hPa 0 mm - 3 W/m² -
1787875366 23.89° C 98% 1010 hPa 0 mm - 7 W/m² -
1787875065 24.44° C 97% 1010.1 hPa 0 mm - 14 W/m² -
1787874761 24.44° C 96% 1010.1 hPa 0 mm - 22 W/m² -
1787874459 24.44° C 95% 1010 hPa 0 mm - 29 W/m² -
1787874154 25° C 94% 1010.1 hPa 0 mm - 39 W/m² -
1787873849 25° C 94% 1010 hPa 0 mm - 48 W/m² -
1787873548 25° C 93% 1010.1 hPa 0 mm - 52 W/m² -
1787873244 25° C 92% 1009.7 hPa 0 mm - 56 W/m² -
1787872942 25° C 92% 1009.8 hPa 0 mm - 64 W/m² -
1787872638 25° C 93% 1010 hPa 0 mm - 63 W/m² -
1787872333 25° C 94% 1010 hPa 0 mm - 63 W/m² -
1787872028 25° C 92% 1009.7 hPa 0 mm - 62 W/m² -
1787871723 25° C 92% 1009.8 hPa 0 mm - 92 W/m² -
1787871421 25° C 92% 1009.4 hPa 0 mm - 104 W/m² -
1787871113 24.44° C 93% 1009.6 hPa 0 mm - 110 W/m² -

* Rain latest hour (hover to see other rain measurements)
** Current wind speed in m/s (hover to see current wind gust speed)